When you browse on this site, cookies collect data to enhance your experience and personalize the content and advertising you see.
Visit our Privacy Policy to learn more. By continuing to use the site, you agree to this use of cookies and data.
  • In Latvia
  • List of Countries
  • For 7 days
  • Water Temperature
  • Weather Map
  • Weather Widgets
  • user-avatar
    Login

    Hourly Weather Wlora

    Today, 20 November, Wednesday

    Time Temperature Precipitation Wind Pressure Humidity
    00:00 +14°C° 4.5 mm 10 mps 760 mmHg 89%
    01:00 +15°C° 0 mm 9 mps 759 mmHg 92%
    02:00 +13°C° 6.9 mm 9 mps 759 mmHg 90%
    03:00 +13°C° 6.9 mm 9 mps 759 mmHg 88%
    04:00 +12°C° 6.9 mm 9 mps 759 mmHg 86%
    05:00 +12°C° 0.5 mm 8 mps 759 mmHg 86%
    06:00 +13°C° 0.5 mm 8 mps 759 mmHg 85%
    07:00 +13°C° 0 mm 8 mps 760 mmHg 86%
    08:00 +15°C° 0.2 mm 8 mps 760 mmHg 82%
    09:00 +16°C° 0.2 mm 7 mps 761 mmHg 78%
    10:00 +17°C° 0.2 mm 7 mps 761 mmHg 74%
    11:00 +17°C° 0 mm 7 mps 761 mmHg 71%
    12:00 +19°C° 0 mm 6 mps 761 mmHg 67%
    13:00 +19°C° 0 mm 6 mps 761 mmHg 63%
    14:00 +17°C° 0 mm 6 mps 761 mmHg 66%
    15:00 +17°C° 0 mm 5 mps 761 mmHg 69%
    16:00 +16°C° 0 mm 5 mps 761 mmHg 72%
    17:00 +16°C° 0 mm 5 mps 761 mmHg 72%
    18:00 +15°C° 0 mm 5 mps 761 mmHg 73%
    19:00 +15°C° 0 mm 5 mps 761 mmHg 74%
    20:00 +14°C° 0 mm 5 mps 761 mmHg 74%
    21:00 +14°C° 0 mm 5 mps 761 mmHg 73%
    22:00 +14°C° 0 mm 4 mps 762 mmHg 73%
    23:00 +14°C° 0 mm 4 mps 761 mmHg 74%

    Tomorrow, 21 November, Thursday

    Time Temperature Precipitation Wind Pressure Humidity
    00:00 +13°C° 0 mm 4 mps 761 mmHg 74%
    01:00 +13°C° 0 mm 3 mps 761 mmHg 75%
    02:00 +13°C° 0 mm 3 mps 761 mmHg 75%
    03:00 +13°C° 0 mm 3 mps 761 mmHg 75%
    04:00 +13°C° 0 mm 3 mps 761 mmHg 75%
    05:00 +13°C° 0 mm 4 mps 761 mmHg 76%
    06:00 +13°C° 0 mm 4 mps 761 mmHg 77%
    07:00 +13°C° 0 mm 4 mps 761 mmHg 78%
    08:00 +14°C° 0 mm 4 mps 761 mmHg 73%
    09:00 +15°C° 0 mm 4 mps 761 mmHg 69%
    10:00 +17°C° 0 mm 4 mps 761 mmHg 65%
    11:00 +18°C° 0 mm 4 mps 760 mmHg 64%
    12:00 +18°C° 0 mm 4 mps 760 mmHg 62%
    13:00 +18°C° 0 mm 4 mps 760 mmHg 61%
    14:00 +18°C° 0 mm 3 mps 760 mmHg 65%
    15:00 +17°C° 0 mm 3 mps 760 mmHg 69%
    16:00 +16°C° 0 mm 3 mps 760 mmHg 73%
    17:00 +16°C° 0 mm 2 mps 760 mmHg 74%
    18:00 +15°C° 0 mm 2 mps 760 mmHg 75%
    19:00 +15°C° 0 mm 1 mps 760 mmHg 76%
    20:00 +15°C° 0 mm 1 mps 760 mmHg 76%
    21:00 +15°C° 0 mm 1 mps 760 mmHg 76%
    22:00 +14°C° 0 mm 1 mps 760 mmHg 76%
    23:00 +14°C° 0.1 mm 1 mps 760 mmHg 76%

    Day after tomorrow, 22 November, Friday

    Time Temperature Precipitation Wind Pressure Humidity
    00:00 +14°C° 0.1 mm 1 mps 760 mmHg 77%
    01:00 +14°C° 0.1 mm 1 mps 760 mmHg 78%
    02:00 +14°C° 0 mm 1 mps 760 mmHg 78%
    03:00 +13°C° 0 mm 1 mps 760 mmHg 78%
    04:00 +13°C° 0 mm 1 mps 760 mmHg 78%
    05:00 +13°C° 0 mm 1 mps 760 mmHg 78%
    06:00 +13°C° 0 mm 1 mps 761 mmHg 78%
    07:00 +13°C° 0 mm 1 mps 761 mmHg 78%
    08:00 +14°C° 0 mm 1 mps 761 mmHg 73%
    09:00 +16°C° 0 mm 1 mps 761 mmHg 69%
    10:00 +18°C° 0 mm 1 mps 761 mmHg 64%
    11:00 +18°C° 0 mm 1 mps 761 mmHg 64%
    12:00 +18°C° 0 mm 1 mps 761 mmHg 64%
    13:00 +19°C° 0 mm 1 mps 761 mmHg 64%
    14:00 +18°C° 0 mm 1 mps 761 mmHg 68%
    15:00 +18°C° 0 mm 1 mps 761 mmHg 72%
    16:00 +16°C° 0 mm 1 mps 761 mmHg 76%
    17:00 +16°C° 0 mm 2 mps 761 mmHg 77%
    18:00 +15°C° 0 mm 2 mps 761 mmHg 78%
    19:00 +15°C° 0 mm 2 mps 761 mmHg 79%
    20:00 +14°C° 0 mm 3 mps 762 mmHg 79%
    21:00 +13°C° 0 mm 3 mps 762 mmHg 78%
    22:00 +13°C° 0 mm 4 mps 762 mmHg 78%
    23:00 +13°C° 0 mm 4 mps 762 mmHg 77%

    23 November, Saturday

    Time Temperature Precipitation Wind Pressure Humidity
    00:00 +13°C° 0 mm 4 mps 762 mmHg 76%
    01:00 +13°C° 0 mm 5 mps 762 mmHg 75%
    02:00 +13°C° 0 mm 5 mps 762 mmHg 75%
    03:00 +13°C° 0 mm 5 mps 762 mmHg 74%
    04:00 +13°C° 0 mm 6 mps 761 mmHg 73%
    05:00 +13°C° 0.1 mm 6 mps 761 mmHg 73%
    06:00 +13°C° 0.1 mm 6 mps 762 mmHg 74%
    07:00 +13°C° 0.1 mm 6 mps 762 mmHg 74%
    08:00 +14°C° 0.2 mm 6 mps 762 mmHg 70%
    09:00 +15°C° 0.2 mm 6 mps 762 mmHg 66%
    10:00 +16°C° 0.2 mm 7 mps 762 mmHg 62%
    11:00 +17°C° 0.2 mm 7 mps 762 mmHg 59%
    12:00 +17°C° 0.2 mm 7 mps 761 mmHg 56%
    13:00 +18°C° 0.2 mm 7 mps 761 mmHg 54%
    14:00 +17°C° 0 mm 7 mps 761 mmHg 57%
    15:00 +17°C° 0 mm 7 mps 761 mmHg 61%
    16:00 +16°C° 0 mm 7 mps 760 mmHg 64%
    17:00 +15°C° 0 mm 7 mps 761 mmHg 66%
    18:00 +15°C° 0 mm 7 mps 761 mmHg 67%
    19:00 +14°C° 0 mm 7 mps 761 mmHg 68%
    20:00 +14°C° 0 mm 7 mps 761 mmHg 69%
    21:00 +14°C° 0 mm 7 mps 761 mmHg 70%
    22:00 +14°C° 0 mm 7 mps 762 mmHg 70%
    23:00 +12°C° 0 mm 7 mps 761 mmHg 70%

    24 November, Sunday

    Time Temperature Precipitation Wind Pressure Humidity
    00:00 +12°C° 0 mm 7 mps 761 mmHg 70%
    01:00 +12°C° 0 mm 8 mps 761 mmHg 70%
    02:00 +12°C° 0 mm 7 mps 761 mmHg 69%
    03:00 +12°C° 0 mm 7 mps 761 mmHg 69%
    04:00 +12°C° 0 mm 7 mps 760 mmHg 69%
    05:00 +12°C° 0 mm 7 mps 760 mmHg 69%
    06:00 +12°C° 0 mm 7 mps 760 mmHg 69%
    07:00 +12°C° 0 mm 7 mps 760 mmHg 70%
    08:00 +14°C° 0 mm 7 mps 760 mmHg 67%
    09:00 +15°C° 0 mm 7 mps 760 mmHg 63%
    10:00 +17°C° 0 mm 7 mps 760 mmHg 60%
    11:00 +17°C° 0 mm 7 mps 759 mmHg 58%
    12:00 +18°C° 0 mm 7 mps 759 mmHg 55%
    13:00 +20°C° 0 mm 6 mps 758 mmHg 53%
    14:00 +19°C° 0 mm 6 mps 758 mmHg 56%
    15:00 +17°C° 0 mm 5 mps 757 mmHg 60%
    16:00 +18°C° 0 mm 4 mps 757 mmHg 64%
    17:00 +17°C° 0 mm 4 mps 757 mmHg 65%
    18:00 +17°C° 0 mm 4 mps 756 mmHg 66%
    19:00 +15°C° 0 mm 4 mps 756 mmHg 66%
    20:00 +15°C° 0 mm 5 mps 756 mmHg 67%
    21:00 +15°C° 0 mm 5 mps 755 mmHg 67%
    22:00 +15°C° 0 mm 6 mps 755 mmHg 68%
    23:00 +15°C° 0 mm 6 mps 755 mmHg 69%

    25 November, Monday

    Time Temperature Precipitation Wind Pressure Humidity
    00:00 +15°C° 0 mm 6 mps 754 mmHg 70%
    01:00 +15°C° 0 mm 6 mps 754 mmHg 71%
    02:00 +15°C° 0.1 mm 6 mps 754 mmHg 71%
    03:00 +15°C° 0.1 mm 7 mps 754 mmHg 71%
    04:00 +15°C° 0.1 mm 7 mps 754 mmHg 71%
    05:00 +15°C° 0.1 mm 5 mps 754 mmHg 74%
    06:00 +14°C° 0.1 mm 4 mps 754 mmHg 78%
    07:00 +15°C° 0.1 mm 2 mps 754 mmHg 82%
    08:00 +16°C° 0.1 mm 2 mps 755 mmHg 77%
    09:00 +17°C° 0.1 mm 2 mps 755 mmHg 72%
    10:00 +17°C° 0.1 mm 2 mps 755 mmHg 67%
    11:00 +18°C° 0.1 mm 2 mps 755 mmHg 65%
    12:00 +18°C° 0.1 mm 2 mps 755 mmHg 62%
    13:00 +19°C° 0.1 mm 3 mps 755 mmHg 60%
    14:00 +18°C° 0.1 mm 3 mps 755 mmHg 64%
    15:00 +18°C° 0.1 mm 3 mps 755 mmHg 69%
    16:00 +17°C° 0.1 mm 4 mps 755 mmHg 73%
    17:00 +16°C° 0.1 mm 5 mps 755 mmHg 74%
    18:00 +15°C° 0.1 mm 5 mps 755 mmHg 75%
    19:00 +15°C° 0.1 mm 6 mps 756 mmHg 76%
    20:00 +15°C° 0 mm 6 mps 756 mmHg 76%
    21:00 +14°C° 0 mm 6 mps 756 mmHg 76%
    22:00 +14°C° 0 mm 6 mps 756 mmHg 76%
    23:00 +14°C° 0 mm 6 mps 756 mmHg 75%
    Show more